Flag for Canada Weather past 2 weeks in Selkirk, Manitoba, Canada

Now
24 °F

Cold.


Feels Like: 19 °F
Forecast: -1 / 20 °F
Wind: 5 mph from Northwest

Location: Winnipeg The Forks

Current Time: Dec 25, 2014 at 11:20:25 PM

Latest Report: Dec 25, 2014 at 11:00 PM


Visibility: N/A

Pressure: 30.05 "Hg

Humidity: 89%

Dew point: 22 °F

Location of SelkirkLocation

Historic Weather in Selkirk — Graph

°F

Selkirk temperature yesterday

Maximum temperature yesterday: 30 °F (at 12:00 AM)
Minimum temperature yesterday: 27 °F (at 5:00 PM)
Average temperature yesterday: 28 °F

Past Weeks' High & Low Weather Summary

 TemperatureHumidityPressure
High35 °F (Dec 13, 8:00 PM)100% (Dec 13, 11:00 AM)30.47 "Hg (Dec 13, 11:00 AM)
Low1 °F (Dec 17, 7:00 AM)69% (Dec 17, 2:00 PM)29.40 "Hg (Dec 24, 10:00 PM)
Average25 °F89%29.99 "Hg
* Reported Dec 10 9:00 PM — Dec 25 9:00 PM, Selkirk, Weather by CustomWeather, © 2014

Note: Actual official high and low records may vary slightly from our data, if they occured in-between our weather recording intervals... More about our weather records

Advertising

Selkirk weather history for previous 24 hours

 ConditionsComfort  
Time TempWeatherWind HumidityBarometerVisibility
9:00 PM
Dec 25
25 °FChilly.2 mph86%30.00 "HgN/A
8:00 PM25 °FChilly.3 mph88%29.99 "HgN/A
7:00 PM25 °FChilly.5 mph85%29.97 "HgN/A
6:00 PM26 °FChilly.3 mph83%29.94 "HgN/A
5:00 PM27 °FChilly.3 mph81%29.92 "HgN/A
4:00 PM26 °FChilly.5 mph81%29.89 "HgN/A
3:00 PM27 °FChilly.7 mph80%29.85 "HgN/A
2:00 PM27 °FChilly.7 mph82%29.81 "HgN/A
1:00 PM27 °FChilly.6 mph82%29.78 "HgN/A
12:00 PM27 °FChilly.6 mph82%29.76 "HgN/A
11:00 AM26 °FChilly.5 mph86%29.74 "HgN/A
10:00 AM25 °FChilly.6 mph87%29.72 "HgN/A
9:00 AM25 °FChilly.5 mph87%29.67 "HgN/A
8:00 AM26 °FChilly.5 mph87%29.63 "HgN/A
7:00 AM26 °FChilly.5 mph89%29.59 "HgN/A
6:00 AM26 °FChilly.5 mph88%29.55 "HgN/A
5:00 AM27 °FChilly.5 mph87%29.51 "HgN/A
4:00 AM31 °FChilly.3 mph80%29.49 "HgN/A
3:00 AM29 °FChilly.3 mph87%29.46 "HgN/A
2:00 AM30 °FChilly.3 mph84%29.44 "HgN/A
1:00 AM30 °FChilly.3 mph87%29.42 "HgN/A
12:00 AM29 °FChilly.3 mph90%29.41 "HgN/A
11:00 PM
Dec 24
28 °FChilly.5 mph91%29.40 "HgN/A
Weather by CustomWeather, © 2014

See weather overviewHow to use our weather pages